This demonstration page uses our WeatherBlox Daily Observations layout. Learn more.

Left ArrowRight Arrow

40.92945, -100.16068

Hourly Observations for April 25, 2020

Temp ( °F °C ) Dew Point ( °F °C ) Humidity (%) Winds ( mph kmh ) Pressure ( in mb ) Visibility ( mi km ) Precip ( " mm )
12:15 am 00:15 Partly Cloudy 45 7.4 42 5.7 89 89 WNW 10 17 30.09 1019 10 16 0.00 0.00
12:35 am 00:35 Partly Cloudy 45 7.3 42 5.6 89 89 NW 9 15 30.09 1019 10 16 0.00 0.00
12:55 am 00:55 Clear 44 6.5 41 5.2 92 92 NW 10 17 30.09 1019 10 16 0.00 0.00
1:15 am 01:15 Clear 43 6.1 41 5 93 93 WNW 8 13 30.10 1019 10 16 0.00 0.00
1:35 am 01:35 Clear 43 6 41 5 93 93 WNW 13 20 30.11 1020 10 16 0.00 0.00
1:55 am 01:55 Clear 43 6 41 5 93 93 WNW 10 17 30.11 1020 10 16 0.00 0.00
2:15 am 02:15 Clear 43 6.1 41 5 93 93 WNW 10 17 30.11 1020 10 16 0.00 0.00
2:35 am 02:35 Clear 44 6.4 40 4.7 89 89 WNW 10 17 30.09 1019 10 16 0.00 0.00
2:55 am 02:55 Clear 43 6 40 4.5 90 90 NW 10 17 30.10 1019 10 16 0.00 0.00
3:15 am 03:15 Clear 41 5.1 39 4 93 93 WNW 9 15 30.11 1020 10 16 0.00 0.00
3:35 am 03:35 Clear 40 4.3 38 3.5 95 95 WNW 9 15 30.12 1020 10 16 0.00 0.00
3:55 am 03:55 Clear 40 4.5 38 3.6 94 94 WNW 8 13 30.11 1020 10 16 0.00 0.00
4:15 am 04:15 Clear 40 4.2 38 3.5 95 95 W 8 13 30.12 1020 10 16 0.00 0.00
4:35 am 04:35 Clear 39 4 38 3.2 95 95 W 7 11 30.14 1021 10 16 0.00 0.00
4:55 am 04:55 Clear 39 4 38 3.1 94 94 WNW 8 13 30.14 1021 10 16 0.00 0.00
5:15 am 05:15 Clear 39 3.8 38 3.1 95 95 WNW 8 13 30.15 1021 10 16 0.00 0.00
5:35 am 05:35 Clear 39 4.1 38 3.1 93 93 WNW 12 19 30.15 1021 10 16 0.00 0.00
5:55 am 05:55 Clear 40 4.2 38 3.2 93 93 WNW 14 22 30.16 1021 10 16 0.00 0.00
6:15 am 06:15 Clear 40 4.2 38 3.1 93 93 WNW 12 19 30.15 1021 10 16 0.00 0.00
6:35 am 06:35 Partly Cloudy 39 4 37 3 93 93 WNW 10 17 30.16 1021 10 16 0.00 0.00
6:55 am 06:55 Sunny 40 4.2 37 3 92 92 WNW 12 19 30.16 1021 10 16 0.00 0.00
7:15 am 07:15 Sunny 39 4 37 2.8 92 92 WNW 13 20 30.17 1022 10 16 0.00 0.00
7:35 am 07:35 Sunny 39 3.9 37 2.8 93 93 WNW 9 15 30.17 1022 10 16 0.00 0.00
7:55 am 07:55 Sunny 40 4.6 38 3.3 91 91 WNW 10 17 30.17 1022 10 16 0.00 0.00
8:15 am 08:15 Sunny 42 5.8 39 4.1 89 89 WNW 10 17 30.17 1022 10 16 0.00 0.00
8:35 am 08:35 Sunny 44 6.6 40 4.5 87 87 NW 10 17 30.16 1021 10 16 0.00 0.00
8:55 am 08:55 Sunny 47 8.3 42 5.7 84 84 NW 10 17 30.15 1021 10 16 0.00 0.00
9:15 am 09:15 Sunny 49 9.4 44 6.4 82 82 NW 12 19 30.14 1021 10 16 0.00 0.00
9:35 am 09:35 Sunny 51 10.7 45 7.4 80 80 NW 12 19 30.13 1020 10 16 0.00 0.00
9:55 am 09:55 Sunny 53 11.9 45 7.1 73 73 NW 15 24 30.12 1020 10 16 0.00 0.00
10:15 am 10:15 Sunny 55 13 43 6.1 63 63 NNW 17 28 30.12 1020 10 16 0.00 0.00
10:35 am 10:35 Sunny 57 13.8 43 6.1 60 60 NNW 18 30 30.12 1020 10 16 0.00 0.00
10:55 am 10:55 Sunny 57 14.1 42 5.8 58 58 N 20 31 30.11 1020 10 16 0.00 0.00
11:15 am 11:15 Sunny 58 14.6 42 5.5 55 55 NNW 16 26 30.11 1020 10 16 0.00 0.00
11:35 am 11:35 Sunny 59 15.2 42 5.4 52 52 NNW 16 26 30.10 1019 10 16 0.00 0.00
11:55 am 11:55 Sunny 60 15.7 40 4.5 48 48 NNW 14 22 30.10 1019 10 16 0.00 0.00
12:15 pm 12:15 Partly Cloudy 60 15.7 40 4.5 48 48 WNW 9 15 30.10 1019 10 16 0.00 0.00
12:35 pm 12:35 Mostly Cloudy 60 15.5 38 3.6 45 45 NW 20 31 30.10 1019 7 11 0.00 0.00
12:55 pm 12:55 Mostly Cloudy 61 16.2 38 3.3 42 42 NNW 16 26 30.08 1019 10 16 0.00 0.00
1:15 pm 13:15 Mostly Cloudy 63 17.1 38 3.5 41 41 WNW 14 22 30.08 1019 10 16 0.00 0.00
1:35 pm 13:35 Mostly Cloudy 61 16.2 36 2.1 39 39 NNW 14 22 30.07 1018 10 16 0.00 0.00
1:55 pm 13:55 Mostly Cloudy 64 17.6 35 1.8 35 35 NW 20 31 30.05 1018 10 16 0.00 0.00
2:15 pm 14:15 Mostly Cloudy 64 17.6 35 1.8 35 35 WNW 18 30 30.05 1018 10 16 0.00 0.00
2:35 pm 14:35 Mostly Cloudy 65 18.1 35 1.4 33 33 NW 21 33 30.05 1018 10 16 0.00 0.00
2:55 pm 14:55 Partly Cloudy 65 18.3 34 1.1 32 32 NNW 21 33 30.04 1017 10 16 0.00 0.00
3:15 pm 15:15 Partly Cloudy 65 18.2 34 0.9 31 31 NW 16 26 30.04 1017 10 16 0.00 0.00
3:35 pm 15:35 Mostly Cloudy 66 18.9 33 0.7 30 30 NNW 16 26 30.03 1017 10 16 0.00 0.00
3:55 pm 15:55 Partly Cloudy 65 18.5 33 0.6 30 30 N 15 24 30.03 1017 10 16 0.00 0.00
4:15 pm 16:15 Partly Cloudy 65 18.2 32 -0.1 29 29 NW 20 31 30.03 1017 10 16 0.00 0.00
4:35 pm 16:35 Partly Cloudy 65 18.3 32 0 29 29 NW 14 22 30.03 1017 10 16 0.00 0.00
4:55 pm 16:55 Partly Cloudy 65 18.6 32 0.2 29 29 N 14 22 30.01 1016 10 16 0.00 0.00
5:15 pm 17:15 Partly Cloudy 65 18.6 32 -0.1 28 28 NW 20 31 30.02 1017 10 16 0.00 0.00
5:35 pm 17:35 Hazy 65 18.4 31 -0.3 28 28 NNW 20 31 30.03 1017 4 6 0.00 0.00
5:55 pm 17:55 Sunny 65 18.2 32 -0.1 29 29 NNW 18 30 30.03 1017 10 16 0.00 0.00
6:15 pm 18:15 Sunny 64 17.8 31 -0.8 28 28 NNW 15 24 30.03 1017 10 16 0.00 0.00
6:35 pm 18:35 Partly Cloudy 64 17.6 31 -0.5 29 29 NNW 18 30 30.03 1017 10 16 0.00 0.00
6:55 pm 18:55 Partly Cloudy 63 17.2 31 -0.7 30 30 N 15 24 30.05 1017 10 16 0.00 0.00
7:15 pm 19:15 Sunny 63 17 30 -1.1 29 29 NNW 16 26 30.05 1018 10 16 0.00 0.00
7:35 pm 19:35 Sunny 62 16.5 30 -0.9 31 31 NNW 12 19 30.05 1018 7 11 0.00 0.00
7:55 pm 19:55 Sunny 60 15.3 31 -0.5 34 34 N 9 15 30.05 1018 10 16 0.00 0.00
8:15 pm 20:15 Sunny 56 13.4 32 0.1 40 40 N 6 9 30.08 1019 10 16 0.00 0.00
8:35 pm 20:35 Clear 54 12.1 32 0 44 44 N 7 11 30.09 1019 7 11 0.00 0.00
8:55 pm 20:55 Clear 53 11.7 31 -0.5 43 43 N 5 7 30.10 1019 10 16 0.00 0.00
9:15 pm 21:15 Clear 49 9.6 32 0 52 52 NNE 3 6 30.12 1020 10 16 0.00 0.00
9:35 pm 21:35 Clear 47 8.2 32 0.1 57 57 NNE 5 7 30.15 1021 10 16 0.00 0.00
9:55 pm 21:55 Clear 45 7.4 33 0.4 61 61 Calm 30.16 1021 10 16 0.00 0.00
10:15 pm 22:15 Clear 46 7.9 32 0 58 58 Calm 30.15 1021 10 16 0.00 0.00
10:35 pm 22:35 Clear 45 7 32 0.1 62 62 Calm 30.16 1021 10 16 0.00 0.00
10:55 pm 22:55 Clear 43 6.3 32 0 64 64 Calm 30.17 1022 10 16 0.00 0.00
11:15 pm 23:15 Clear 43 6 32 0 66 66 Calm 30.18 1022 10 16 0.00 0.00
11:35 pm 23:35 Clear 42 5.7 32 0.1 68 68 Calm 30.18 1022 10 16 0.00 0.00
11:55 pm 23:55 Clear 38 3.2 32 0.1 80 80 NNW 3 6 30.21 1023 10 16 0.00 0.00

Powered by AerisWeather